Weather History for Clintonville, WI

Change the Weather History Date:

Thursday, November 1, 2012

  Actual Average Record
Temperature  
Mean Temperature 35 °F -  
Max Temperature 44 °F 52 °F 71 °F (2000)
Min Temperature 26 °F 32 °F 18 °F (1976)
Degree Days  
Heating Degree Days 30    
Moisture  
Dew Point 25 °F    
Average Humidity 62    
Maximum Humidity 87    
Minimum Humidity 45    
Precipitation  
Precipitation 0.00 in - - ()
Sea Level Pressure  
Sea Level Pressure 29.85 in    
Wind  
Wind Speed 6 mph (NW)    
Max Wind Speed 16 mph    
Max Gust Speed 23 mph    
Visibility 10 miles    
Events      
Averages and records for this station are not official NWS values.
T = Trace of Precipitation, MM = Missing Value Source: NWS Daily Summary

Daily Weather History Graph

Daily Weather History Graph

Search for Another Location

Airport:

Trip Planner

Search our weather history database for the weather conditions in past years. The results will help you decide how hot, cold, wet, or windy it might be!

Date:

Astronomy

Nov. 01, 2012 Rise Set
Actual Time 7:33 AM CDT 5:43 PM CDT
Civil Twilight 7:02 AM CDT 6:13 PM CDT
Nautical Twilight 6:28 AM CDT 6:47 PM CDT
Astronomical Twilight 5:54 AM CDT 7:21 PM CDT
Moon 7:34 PM CDT (11/1) 10:10 AM CDT (11/1)
Length of Visible Light 11h 10m
Length of Day
10h 09m
Waning Gibbous, 93% of the Moon is Illuminated
Nov 1
Waning Gibbous
Nov 6
Last Quarter
Nov 13
New
Nov 20
First Quarter
Nov 28
Full

Hourly Weather History & Observations

Time (CDT) Temp. Windchill Dew Point Humidity Pressure Visibility Wind Dir Wind Speed Gust Speed Precip Events Conditions
12:15 AM 30.2 °F - 15.8 °F 55% 29.84 in 10.0 mi Calm Calm - N/A   Clear
12:35 AM 30.2 °F - 17.6 °F 60% 29.84 in 10.0 mi Calm Calm - N/A   Clear
12:55 AM 28.4 °F 24.6 °F 17.6 °F 64% 29.84 in 10.0 mi West 3.5 mph - N/A   Clear
1:15 AM 26.6 °F 21.2 °F 17.6 °F 69% 29.83 in 10.0 mi West 4.6 mph - N/A   Clear
1:35 AM 28.4 °F - 17.6 °F 64% 29.83 in 10.0 mi Calm Calm - N/A   Mostly Cloudy
2:15 AM 32.0 °F 28.7 °F 17.6 °F 55% 29.83 in 10.0 mi West 3.5 mph - N/A   Overcast
2:35 AM 32.0 °F 28.7 °F 19.4 °F 60% 29.82 in 10.0 mi West 3.5 mph - N/A   Overcast
2:55 AM 32.0 °F 27.5 °F 17.6 °F 55% 29.82 in 10.0 mi WNW 4.6 mph - N/A   Overcast
3:15 AM 33.8 °F 28.6 °F 17.6 °F 52% 29.82 in 10.0 mi WNW 5.8 mph - N/A   Overcast
3:35 AM 33.8 °F 28.6 °F 17.6 °F 52% 29.81 in 10.0 mi NW 5.8 mph - N/A   Overcast
3:55 AM 33.8 °F 28.6 °F 15.8 °F 48% 29.81 in 10.0 mi WNW 5.8 mph - N/A   Overcast
4:15 AM 35.6 °F 29.2 °F 17.6 °F 48% 29.81 in 10.0 mi WNW 8.1 mph - N/A   Overcast
4:35 AM 35.6 °F 29.9 °F 17.6 °F 48% 29.81 in 10.0 mi WNW 6.9 mph - N/A   Overcast
4:55 AM 35.6 °F 30.7 °F 17.6 °F 48% 29.81 in 10.0 mi NW 5.8 mph - N/A   Overcast
5:15 AM 35.6 °F 29.2 °F 17.6 °F 48% 29.81 in 10.0 mi WNW 8.1 mph - N/A   Overcast
5:35 AM 35.6 °F 28.6 °F 17.6 °F 48% 29.81 in 10.0 mi WNW 9.2 mph - N/A   Overcast
5:55 AM 35.6 °F 29.2 °F 17.6 °F 48% 29.81 in 10.0 mi WNW 8.1 mph - N/A   Overcast
6:15 AM 35.6 °F 29.9 °F 17.6 °F 48% 29.82 in 10.0 mi WNW 6.9 mph - N/A   Overcast
6:35 AM 35.6 °F 29.9 °F 17.6 °F 48% 29.82 in 10.0 mi West 6.9 mph - N/A   Overcast
6:55 AM 35.6 °F 30.7 °F 17.6 °F 48% 29.82 in 10.0 mi West 5.8 mph - N/A   Overcast
7:15 AM 35.6 °F 30.7 °F 17.6 °F 48% 29.82 in 10.0 mi West 5.8 mph - N/A   Overcast
7:35 AM 35.6 °F 30.7 °F 17.6 °F 48% 29.82 in 10.0 mi West 5.8 mph - N/A   Overcast
7:55 AM 35.6 °F 29.9 °F 17.6 °F 48% 29.83 in 10.0 mi WNW 6.9 mph - N/A   Overcast
8:15 AM 35.6 °F 29.9 °F 17.6 °F 48% 29.83 in 10.0 mi West 6.9 mph - N/A   Overcast
8:35 AM 35.6 °F 30.7 °F 17.6 °F 48% 29.83 in 10.0 mi WNW 5.8 mph - N/A   Overcast
8:55 AM 37.4 °F 32.8 °F 19.4 °F 48% 29.84 in 10.0 mi NW 5.8 mph - N/A   Scattered Clouds
9:15 AM 37.4 °F 31.4 °F 19.4 °F 48% 29.84 in 10.0 mi WNW 8.1 mph - N/A   Mostly Cloudy
9:35 AM 39.2 °F 33.6 °F 21.2 °F 49% 29.84 in 10.0 mi NW 8.1 mph - N/A   Mostly Cloudy
9:55 AM 41.0 °F 34.3 °F 21.2 °F 45% 29.84 in 10.0 mi NW 11.5 mph - N/A   Overcast
10:15 AM 41.0 °F 35.2 °F 21.2 °F 45% 29.84 in 10.0 mi WNW 9.2 mph - N/A   Overcast
10:35 AM 41.0 °F 35.8 °F 23.0 °F 49% 29.84 in 10.0 mi West 8.1 mph - N/A   Mostly Cloudy
10:55 AM 42.8 °F 37.5 °F 23.0 °F 46% 29.84 in 10.0 mi WNW 9.2 mph - N/A   Mostly Cloudy
11:15 AM 42.8 °F 35.4 °F 28.4 °F 57% 29.84 in 10.0 mi NW 15.0 mph 20.7 mph N/A   Mostly Cloudy
11:35 AM 42.8 °F 37.5 °F 28.4 °F 57% 29.84 in 10.0 mi NW 9.2 mph - N/A   Mostly Cloudy
11:55 AM 42.8 °F 36.6 °F 30.2 °F 61% 29.84 in 10.0 mi NW 11.5 mph - N/A   Mostly Cloudy
12:15 PM 42.8 °F 37.5 °F 30.2 °F 61% 29.83 in 10.0 mi NNW 9.2 mph 20.7 mph N/A   Mostly Cloudy
12:35 PM 44.6 °F 38.1 °F 30.2 °F 57% 29.83 in 10.0 mi North 13.8 mph 18.4 mph N/A   Overcast
12:55 PM 44.6 °F 37.8 °F 32.0 °F 61% 29.83 in 10.0 mi NNW 15.0 mph 21.9 mph N/A   Overcast
1:15 PM 44.6 °F 37.8 °F 32.0 °F 61% 29.83 in 10.0 mi NNW 15.0 mph 23.0 mph N/A   Overcast
1:35 PM 42.8 °F 35.1 °F 32.0 °F 66% 29.83 in 10.0 mi NW 16.1 mph - N/A   Overcast
2:15 PM 42.8 °F 35.4 °F 32.0 °F 66% 29.83 in 10.0 mi NNW 15.0 mph 20.7 mph N/A   Overcast
2:35 PM 42.8 °F 35.4 °F 32.0 °F 66% 29.83 in 10.0 mi NNW 15.0 mph 18.4 mph N/A   Overcast
2:55 PM 42.8 °F 36.6 °F 32.0 °F 66% 29.83 in 10.0 mi NNW 11.5 mph - N/A   Overcast
3:15 PM 42.8 °F 37.0 °F 32.0 °F 66% 29.83 in 10.0 mi NNW 10.4 mph 18.4 mph N/A   Overcast
3:35 PM 42.8 °F 38.0 °F 32.0 °F 66% 29.83 in 10.0 mi NNW 8.1 mph - N/A   Overcast
3:55 PM 44.6 °F 38.1 °F 32.0 °F 61% 29.83 in 10.0 mi NNW 13.8 mph - N/A   Overcast
4:15 PM 42.8 °F 36.2 °F 32.0 °F 66% 29.84 in 10.0 mi NW 12.7 mph - N/A   Overcast
4:35 PM 42.8 °F 37.0 °F 32.0 °F 66% 29.84 in 10.0 mi NW 10.4 mph - N/A   Overcast
4:55 PM 42.8 °F 37.5 °F 32.0 °F 66% 29.85 in 10.0 mi NNW 9.2 mph 16.1 mph N/A   Mostly Cloudy
5:15 PM 42.8 °F 37.5 °F 32.0 °F 66% 29.85 in 10.0 mi NW 9.2 mph 16.1 mph N/A   Overcast
5:35 PM 42.8 °F 37.0 °F 32.0 °F 66% 29.86 in 10.0 mi NW 10.4 mph - N/A   Overcast
5:55 PM 41.0 °F 34.3 °F 32.0 °F 70% 29.86 in 10.0 mi North 11.5 mph 18.4 mph N/A   Overcast
6:15 PM 41.0 °F 36.4 °F 32.0 °F 70% 29.87 in 10.0 mi NNW 6.9 mph - N/A   Overcast
6:35 PM 41.0 °F 34.7 °F 32.0 °F 70% 29.87 in 10.0 mi NNW 10.4 mph 18.4 mph N/A   Overcast
6:55 PM 41.0 °F 35.8 °F 32.0 °F 70% 29.88 in 10.0 mi NNW 8.1 mph - N/A   Overcast
7:15 PM 41.0 °F 35.2 °F 32.0 °F 70% 29.89 in 10.0 mi NNW 9.2 mph 19.6 mph N/A   Overcast
7:35 PM 41.0 °F 35.8 °F 32.0 °F 70% 29.90 in 10.0 mi NNW 8.1 mph - N/A   Overcast
7:55 PM 39.2 °F 33.0 °F 32.0 °F 75% 29.91 in 10.0 mi NNW 9.2 mph - N/A   Overcast
8:15 PM 37.4 °F 30.8 °F 30.2 °F 75% 29.91 in 10.0 mi North 9.2 mph 21.9 mph N/A   Scattered Clouds
8:35 PM 37.4 °F 30.8 °F 30.2 °F 75% 29.91 in 10.0 mi NNW 9.2 mph - N/A   Clear
8:55 PM 35.6 °F 32.8 °F 30.2 °F 81% 29.92 in 10.0 mi NNW 3.5 mph - N/A   Clear
9:15 PM 35.6 °F 31.7 °F 30.2 °F 81% 29.92 in 10.0 mi NNW 4.6 mph - N/A   Clear
9:35 PM 35.6 °F 30.7 °F 32.0 °F 87% 29.93 in 10.0 mi NNW 5.8 mph - N/A   Clear
9:55 PM 33.8 °F 28.6 °F 30.2 °F 87% 29.93 in 10.0 mi NW 5.8 mph - N/A   Clear
10:15 PM 35.6 °F 28.6 °F 30.2 °F 81% 29.94 in 10.0 mi NNW 9.2 mph - N/A   Clear
10:35 PM 35.6 °F 29.9 °F 30.2 °F 81% 29.94 in 10.0 mi NNW 6.9 mph - N/A   Clear
10:55 PM 33.8 °F 28.6 °F 30.2 °F 87% 29.94 in 10.0 mi NW 5.8 mph - N/A   Clear
11:15 PM 33.8 °F 28.6 °F 30.2 °F 87% 29.94 in 10.0 mi NNW 5.8 mph - N/A   Clear
11:35 PM 33.8 °F 28.6 °F 30.2 °F 87% 29.94 in 10.0 mi NNW 5.8 mph - N/A   Clear
11:55 PM 33.8 °F 29.6 °F 30.2 °F 87% 29.95 in 10.0 mi NNW 4.6 mph - N/A   Clear